Overview Statistics Trail Chart Weather Telemetry Raw packets
 

This is the latest recevied weather packets stored in our database for station/object N0QWM. If no packets are shown the sender has not sent any weather packets the latest 10 day(s).

<< 53 54 55 56 57 58 59 >>
Time Temp. Humidity Pressure Rain* Wind** Luminosity Snow
1788298244 36.67° C 46% 1022 hPa 0 mm - 278 W/m² -
1788297944 37.22° C 46% 1021.9 hPa 0 mm - 289 W/m² -
1788297640 36.67° C 46% 1022 hPa 0 mm - 377 W/m² -
1788297335 36.67° C 47% 1022 hPa 0 mm - 393 W/m² -
1788297032 36.11° C 48% 1021.9 hPa 0 mm - 235 W/m² -
1788296727 36.11° C 48% 1022 hPa 0 mm - 396 W/m² -
1788296423 35.56° C 47% 1022.1 hPa 0 mm - 422 W/m² -
1788296117 35° C 47% 1022 hPa 0 mm - 310 W/m² -
1788295812 36.67° C 46% 1022 hPa 0 mm - 67 W/m² -
1788295509 37.22° C 46% 1022.1 hPa 0 mm - 285 W/m² -
1788295203 37.22° C 46% 1022.1 hPa 0 mm - 399 W/m² -
1788294898 36.11° C 45% 1022.4 hPa 0 mm - 474 W/m² -
1788294593 35.56° C 47% 1022.2 hPa 0 mm - 504 W/m² -
1788294287 36.11° C 50% 1022.5 hPa 0 mm - 521 W/m² -
1788293983 36.67° C 48% 1022.6 hPa 0 mm - 333 W/m² -
1788293677 36.67° C 48% 1022.6 hPa 0 mm - 150 W/m² -
1788293372 37.22° C 47% 1022.3 hPa 0 mm - 517 W/m² -
1788293067 36.67° C 46% 1022.8 hPa 0 mm - 436 W/m² -
1788292766 36.67° C 46% 1022.9 hPa 0 mm - 512 W/m² -
1788292464 36.11° C 47% 1022.9 hPa 0 mm - 557 W/m² -
1788292160 36.67° C 46% 1022.9 hPa 0 mm - 92 W/m² -
1788291854 37.22° C 47% 1022.9 hPa 0 mm - 530 W/m² -
1788291550 36.67° C 44% 1022.8 hPa 0 mm - 521 W/m² -
1788291250 35.56° C 45% 1022.7 hPa 0 mm - 604 W/m² -
1788290950 35.56° C 47% 1023 hPa 0 mm - 350 W/m² -

* Rain latest hour (hover to see other rain measurements)
** Current wind speed in m/s (hover to see current wind gust speed)